Powrót do katalogu

CZ-6A DEB

AktywnyPO
NORAD 61265·DEBRIS·🇨🇳 China

Wystrzelony Aug 6, 2024 z Taiyuan Satellite Launch Center

Loading…

Następne Przeloty (najbliższe 24 godziny)

TLE

ŚwieżeSource: Space-Track

Epoka: Sep 14, 2026, 11:02 UTC

1 61265U 24140SA  26257.46027035  .00005700  00000-0  11450-2 0  9995
2 61265  88.9472 254.9231 0057882 327.4495  32.3153 14.60483173108856

Śledź CZ-6A DEB w czasie rzeczywistym z AllMySat

Download on the App Store